Погода в Старой Полтавке

Россия / Волгоградская область     50°28′40″N   46°28′56″E
темп.,
°C
ветер,
м/с
пор.,
м/с
влажн.,
%
обл.,
%
осадки,
мм/ч
давл.,
гПа
погр.,
м
19 января, вт
вт1900:00−19ссз3495100 0.0 101771
03:00−20с449695 0.0 101776
06:00−20сз239567 0.0 101721
09:00−20зсз229643 0.0 101920
12:00−16з129088 0.0 1018155
15:00−16ююз119393 0.0 101849
18:00−17юз2294100 0.0 101920
21:00−17зюз349694 0.0 101945
20 января, ср
ср2000:00−18з2293100 0.0 101920
03:00−19зсз229494 0.0 102020
06:00−20зсз229688 0.0 102020
09:00−22зсз229445 0.0 102120
12:00−19з23900 0.0 1023166
15:00−19зюз33930 0.0 102344
18:00−22з33930 0.0 102521
21:00−22зсз339315 0.0 102525
21 января, чт
чт2100:00−24зсз23930 0.0 102620
03:00−24з33930 0.0 102721
06:00−23зсз33930 0.0 102826
09:00−22зсз33930 0.0 102937
12:00−17з34910 0.0 1029158
15:00−17юз34930 0.0 102979
18:00−18зюз44920 0.0 102958
21:00−17юз599039 0.0 1029172
22 января, пт
пт2200:00−16юз61286100 0.0 1027267
03:00−15юз71386100 0.0 1026321
06:00−11юз81491100 0.1 1023388
09:00−9юз71593100 0.3 1023448
12:00−2зюз71391100 0.1 1022795
15:000зюз71390100 0.1 1021674
18:00+1зюз61292100 0.0 1022452
21:00+1зюз61295100 0.0 1022417
23 января, сб
сб2300:000юз5119370 0.0 1023265
03:00+1зюз6119485 0.0 1023406
06:00+1юз51094100 0.0 1024329
09:00−2ююз6109493 0.0 1025238
12:00−3юз6118571 0.0 1025323
15:00−3ююз5118482 0.0 1025278
18:00−4ююз51288100 0.0 1025240
21:00−4ююз5128998 0.0 1025240